International Skating Union - Official Site

ISU World Cup Speed Skating Heerenveen
November 10-12, 2017

Draw | Lap Times | Index | World Cup

Referee: Hanjo  HEIDEMAN  (NED)
Starter: Janny  SMEGEN  (NED)
StartTime: EndTime: Air Temp: Ice Temp: Humidity:
16:22 17:23 14.9℃ -12.9℃ 47%
Result 5000m Men Division A
Rankings as of Nov 12 2017 6:01PM
Rank: No.: Name: Nation: Time: Behind: Points:
1 107 Sven  Kramer NED NED 6:12.88200m - 18.52 - (18.5)
600m - 47.75 - (29.2)
1000m - 1:17.41 - (29.6)
1400m - 1:47.11 - (29.7)
1800m - 2:16.90 - (29.7)
2200m - 2:46.86 - (29.9)
2600m - 3:16.85 - (29.9)
3000m - 3:46.82 - (29.9)
3400m - 4:15.79 - (28.9)
3800m - 4:44.84 - (29.0)
4200m - 5:14.39 - (29.5)
4600m - 5:43.95 - (29.5)
5000m - 6:12.88 - (28.9)
100
2 14 Ted-Jan  Bloemen CAN CAN 6:14.95200m - 18.75 - (18.7)
600m - 47.94 - (29.1)
1000m - 1:17.34 - (29.3)
1400m - 1:47.08 - (29.7)
1800m - 2:16.94 - (29.8)
2200m - 2:46.85 - (29.9)
2600m - 3:16.97 - (30.1)
3000m - 3:46.74 - (29.7)
3400m - 4:16.36 - (29.6)
3800m - 4:45.87 - (29.5)
4200m - 5:15.31 - (29.4)
4600m - 5:44.69 - (29.3)
5000m - 6:14.95 - (30.2)
2.07 80
3 127 Sverre Lunde  Pedersen NOR NOR 6:15.81200m - 18.53 - (18.5)
600m - 47.68 - (29.1)
1000m - 1:17.23 - (29.5)
1400m - 1:47.08 - (29.8)
1800m - 2:16.81 - (29.7)
2200m - 2:46.69 - (29.8)
2600m - 3:16.33 - (29.6)
3000m - 3:46.15 - (29.8)
3400m - 4:15.80 - (29.6)
3800m - 4:45.45 - (29.6)
4200m - 5:15.14 - (29.6)
4600m - 5:45.14 - (29.9)
5000m - 6:15.81 - (30.6)
2.93 70
4 103 Jan  Blokhuijsen NED NED 6:16.70200m - 18.71 - (18.7)
600m - 47.70 - (28.9)
1000m - 1:17.46 - (29.7)
1400m - 1:46.99 - (29.5)
1800m - 2:16.70 - (29.7)
2200m - 2:46.44 - (29.7)
2600m - 3:16.21 - (29.7)
3000m - 3:46.21 - (30.0)
3400m - 4:15.91 - (29.6)
3800m - 4:45.62 - (29.7)
4200m - 5:15.63 - (30.0)
4600m - 5:45.98 - (30.3)
5000m - 6:16.70 - (30.7)
3.82 60
5 106 Erik-Jan  Kooiman NED NED 6:17.14200m - 19.77 - (19.7)
600m - 49.00 - (29.2)
1000m - 1:18.59 - (29.5)
1400m - 1:48.43 - (29.8)
1800m - 2:18.01 - (29.5)
2200m - 2:47.54 - (29.5)
2600m - 3:17.00 - (29.4)
3000m - 3:46.47 - (29.4)
3400m - 4:16.17 - (29.7)
3800m - 4:45.90 - (29.7)
4200m - 5:15.97 - (30.0)
4600m - 5:46.51 - (30.5)
5000m - 6:17.14 - (30.6)
4.26 50
6 68 Nicola  Tumolero ITA ITA 6:17.35200m - 18.99 - (18.9)
600m - 47.78 - (28.7)
1000m - 1:17.41 - (29.6)
1400m - 1:47.27 - (29.8)
1800m - 2:16.96 - (29.6)
2200m - 2:46.72 - (29.7)
2600m - 3:16.50 - (29.7)
3000m - 3:46.28 - (29.7)
3400m - 4:16.26 - (29.9)
3800m - 4:46.30 - (30.0)
4200m - 5:16.55 - (30.2)
4600m - 5:46.77 - (30.2)
5000m - 6:17.35 - (30.5)
4.47 45
7 102 Jorrit  Bergsma NED NED 6:18.56200m - 18.76 - (18.7)
600m - 48.11 - (29.3)
1000m - 1:17.86 - (29.7)
1400m - 1:47.75 - (29.8)
1800m - 2:17.59 - (29.8)
2200m - 2:47.85 - (30.2)
2600m - 3:17.73 - (29.8)
3000m - 3:47.72 - (29.9)
3400m - 4:17.81 - (30.0)
3800m - 4:47.88 - (30.0)
4200m - 5:17.58 - (29.6)
4600m - 5:47.77 - (30.1)
5000m - 6:18.56 - (30.7)
5.68 40
8 133 Peter  Michael NZL NZL 6:18.67200m - 18.89 - (18.8)
600m - 48.17 - (29.2)
1000m - 1:17.85 - (29.6)
1400m - 1:47.68 - (29.8)
1800m - 2:17.70 - (30.0)
2200m - 2:47.48 - (29.7)
2600m - 3:17.25 - (29.7)
3000m - 3:47.13 - (29.8)
3400m - 4:17.33 - (30.2)
3800m - 4:47.35 - (30.0)
4200m - 5:17.94 - (30.5)
4600m - 5:48.79 - (30.8)
5000m - 6:18.67 - (29.8)
5.79 35
9 56 Moritz  Geisreiter GER GER 6:18.72200m - 18.97 - (18.9)
600m - 48.06 - (29.0)
1000m - 1:17.34 - (29.2)
1400m - 1:47.14 - (29.8)
1800m - 2:16.99 - (29.8)
2200m - 2:46.99 - (29.9)
2600m - 3:17.09 - (30.1)
3000m - 3:47.43 - (30.3)
3400m - 4:17.51 - (30.0)
3800m - 4:47.84 - (30.3)
4200m - 5:18.08 - (30.2)
4600m - 5:48.47 - (30.3)
5000m - 6:18.72 - (30.2)
5.84 30
10 54 Patrick  Beckert GER GER 6:18.95200m - 19.27 - (19.2)
600m - 48.23 - (28.9)
1000m - 1:17.91 - (29.6)
1400m - 1:47.74 - (29.8)
1800m - 2:17.79 - (30.0)
2200m - 2:47.90 - (30.1)
2600m - 3:18.30 - (30.4)
3000m - 3:48.49 - (30.1)
3400m - 4:18.69 - (30.1)
3800m - 4:48.82 - (30.1)
4200m - 5:18.99 - (30.1)
4600m - 5:48.98 - (29.9)
5000m - 6:18.95 - (29.9)
6.07 25
11 17 Benjamin  Donnelly CAN CAN 6:22.78200m - 19.18 - (19.1)
600m - 49.34 - (30.1)
1000m - 1:19.69 - (30.3)
1400m - 1:49.89 - (30.2)
1800m - 2:20.55 - (30.6)
2200m - 2:50.69 - (30.1)
2600m - 3:21.25 - (30.5)
3000m - 3:51.73 - (30.4)
3400m - 4:22.07 - (30.3)
3800m - 4:52.20 - (30.1)
4200m - 5:22.43 - (30.2)
4600m - 5:52.64 - (30.2)
5000m - 6:22.78 - (30.1)
9.90 21
12 105 Bob  de Vries NED NED 6:22.96200m - 19.49 - (19.4)
600m - 48.68 - (29.1)
1000m - 1:18.53 - (29.8)
1400m - 1:48.17 - (29.6)
1800m - 2:18.13 - (29.9)
2200m - 2:48.11 - (29.9)
2600m - 3:18.13 - (30.0)
3000m - 3:48.33 - (30.2)
3400m - 4:18.71 - (30.3)
3800m - 4:49.60 - (30.8)
4200m - 5:20.33 - (30.7)
4600m - 5:51.53 - (31.2)
5000m - 6:22.96 - (31.4)
10.08 18
13 71 Seitaro  Ichinohe JPN JPN 6:24.03200m - 18.74 - (18.7)
600m - 48.65 - (29.9)
1000m - 1:18.90 - (30.2)
1400m - 1:49.40 - (30.5)
1800m - 2:19.80 - (30.4)
2200m - 2:50.27 - (30.4)
2600m - 3:20.61 - (30.3)
3000m - 3:51.23 - (30.6)
3400m - 4:21.66 - (30.4)
3800m - 4:52.14 - (30.4)
4200m - 5:22.62 - (30.4)
4600m - 5:53.54 - (30.9)
5000m - 6:24.03 - (30.4)
11.15 16
14 79 Ryosuke  Tsuchiya JPN JPN 6:24.89200m - 19.21 - (19.2)
600m - 49.30 - (30.0)
1000m - 1:19.95 - (30.6)
1400m - 1:50.57 - (30.6)
1800m - 2:20.81 - (30.2)
2200m - 2:51.23 - (30.4)
2600m - 3:21.51 - (30.2)
3000m - 3:51.72 - (30.2)
3400m - 4:21.64 - (29.9)
3800m - 4:51.98 - (30.3)
4200m - 5:22.52 - (30.5)
4600m - 5:53.60 - (31.0)
5000m - 6:24.89 - (31.2)
12.01 14
15 7 Bart  Swings BEL BEL 6:27.12200m - 19.00 - (19.0)
600m - 48.38 - (29.3)
1000m - 1:18.28 - (29.8)
1400m - 1:48.17 - (29.8)
1800m - 2:18.50 - (30.3)
2200m - 2:48.74 - (30.2)
2600m - 3:19.17 - (30.4)
3000m - 3:49.84 - (30.6)
3400m - 4:20.68 - (30.8)
3800m - 4:51.73 - (31.0)
4200m - 5:23.23 - (31.5)
4600m - 5:55.10 - (31.8)
5000m - 6:27.12 - (32.0)
14.24 12
16 65 Andrea  Giovannini ITA ITA 6:28.30200m - 18.82 - (18.8)
600m - 48.14 - (29.3)
1000m - 1:18.16 - (30.0)
1400m - 1:48.03 - (29.8)
1800m - 2:18.11 - (30.0)
2200m - 2:48.14 - (30.0)
2600m - 3:18.36 - (30.2)
3000m - 3:48.91 - (30.5)
3400m - 4:19.73 - (30.8)
3800m - 4:51.02 - (31.2)
4200m - 5:22.81 - (31.7)
4600m - 5:55.16 - (32.3)
5000m - 6:28.30 - (33.1)
15.42 10